Dewpoint
56 46 39 38 24 17 14 5 16 20 27 31 32 37 44 48 48 47 52 59 61 63 67 70 72 73 72 72 72 72 73 73 73 73 72 72 72 72 72 72 71 71 70 68 68 68 68 68 68
42 40 32 29 20 15 2 10 16 27 33 33 33 33 41 48 51 50 51 59 60 63 65 69 72 72 72 72 72 72 73 73 73 73 72 72 72 72 72 72 71 71 69 68 68 68 68 68 68
41 38 30 25 21 10 13 14 19 36 35 33 33 40 47 48 51 52 56 59 59 61 63 69 71 72 72 72 72 72 73 72 72 72 72 72 72 72 71 71 71 71 69 68 67 67 68 67 66
37 37 29 24 17 11 18 23 29 34 32 32 36 45 52 52 56 56 58 59 58 60 64 69 70 71 72 72 72 72 72 72 72 72 72 72 72 71 71 71 71 70 69 69 67 66 65 66 66
34 32 26 22 14 16 19 21 25 31 31 33 35 49 53 58 58 56 59 60 60 60 66 68 70 71 72 72 72 72 71 71 71 72 72 72 72 71 71 71 70 70 70 69 68 66 66 66 66
30 28 22 19 15 16 16 21 22 28 33 33 34 49 55 58 57 57 59 61 62 66 66 67 69 70 71 71 71 70 70 70 71 71 72 72 71 71 70 70 70 70 70 70 68 68 67 67 66
25 28 23 18 19 18 18 24 22 28 35 35 36 41 55 56 59 58 60 63 65 69 66 67 67 69 70 69 69 69 69 70 70 70 71 70 70 69 70 69 69 69 69 69 69 68 68 67 67
23 26 23 19 16 18 23 23 26 26 33 35 35 40 51 57 60 59 61 64 68 70 68 68 68 68 69 70 69 69 69 69 69 70 70 69 68 69 69 68 69 69 68 68 68 68 67 67 67
25 23 22 17 16 21 26 23 24 29 32 36 35 48 53 58 59 60 61 63 67 68 69 69 68 68 68 67 68 68 69 69 69 69 68 67 65 66 66 65 68 68 68 68 68 68 67 67 66
25 25 22 20 20 22 25 25 24 25 30 32 39 48 56 57 59 60 61 62 65 66 68 69 70 69 69 65 68 68 67 68 67 67 68 66 66 65 64 65 67 68 68 68 67 67 66 66 63
26 24 25 23 23 23 24 23 24 24 24 26 35 42 53 55 57 60 60 61 64 65 66 68 70 70 70 68 68 67 67 68 67 68 68 68 67 68 65 64 63 65 67 65 65 65 65 62 63
24 25 25 23 22 23 23 24 23 23 24 24 28 41 52 53 54 56 58 60 61 64 66 67 69 70 71 68 69 68 68 69 68 68 69 70 68 68 67 65 64 64 64 64 63 64 64 65 65
22 23 24 24 23 24 25 24 24 25 25 25 27 43 48 50 51 52 54 58 60 62 65 67 68 70 70 72 69 69 69 69 69 70 68 67 67 67 68 67 65 64 65 65 65 66 65 65 65
25 22 23 23 24 24 24 24 22 24 27 26 27 31 35 47 48 50 51 53 59 62 65 66 67 70 70 70 70 70 68 68 68 69 67 68 69 68 68 67 67 67 67 67 67 66 66 66 66
27 24 23 23 23 23 23 22 23 24 23 25 27 30 31 33 41 45 48 51 56 62 66 67 67 68 69 69 69 68 68 68 68 68 70 68 70 68 67 67 67 67 67 67 66 65 66 64 64
26 26 22 23 22 21 23 21 22 23 24 22 25 29 32 33 33 39 45 47 52 61 65 66 66 66 66 68 69 67 67 67 67 69 70 69 68 68 68 67 67 66 66 66 63 57 54 54 53
23 22 22 20 20 19 21 22 23 21 21 23 24 25 29 32 35 35 39 43 50 61 65 66 67 68 68 68 68 68 68 67 69 70 69 69 68 68 68 67 66 64 60 57 56 57 56 54 53
21 20 21 21 19 19 18 22 23 25 23 26 26 26 27 29 30 35 38 42 48 61 65 67 66 68 68 68 68 67 67 70 69 68 68 68 68 67 66 62 59 58 54 59 57 56 55 53 53
20 20 18 17 16 19 19 23 23 24 24 26 26 27 28 31 32 32 39 42 51 60 64 67 66 67 67 67 66 66 68 67 67 66 66 65 63 61 59 56 55 55 58 57 54 52 49 48 47
21 21 21 22 18 19 16 17 21 23 25 25 25 27 29 30 31 35 41 48 55 60 64 67 66 67 67 66 66 68 66 65 65 64 63 60 58 57 53 55 55 54 56 53 52 47 45 46 46
19 21 23 21 21 21 20 16 19 20 23 24 26 27 27 29 32 33 39 47 58 58 64 66 66 67 67 67 67 67 65 65 62 60 58 57 56 55 55 55 54 50 51 51 47 45 45 43 44
20 19 18 19 20 19 22 14 19 20 20 23 25 27 28 29 30 33 36 45 57 59 64 65 65 67 68 67 66 64 61 59 57 56 56 55 55 54 55 53 52 51 50 47 46 47 45 45 42
18 21 20 19 20 22 20 19 17 18 18 19 24 27 29 30 31 32 34 39 56 60 62 64 66 67 67 66 64 63 62 58 57 55 54 54 55 53 51 52 51 49 50 47 45 46 46 45 45
16 17 20 21 20 20 21 20 16 17 19 20 19 22 27 29 35 35 36 39 55 62 63 66 66 67 67 66 64 63 62 58 53 52 51 52 52 52 51 51 50 48 47 47 46 46 45 47 46
17 19 18 20 21 20 21 18 19 22 22 19 18 22 28 29 34 38 36 36 48 60 62 67 67 66 67 66 63 61 61 58 53 51 50 51 51 50 50 50 50 49 48 46 47 46 46 46 46
23 20 22 21 21 22 23 18 18 22 21 20 20 21 32 35 38 38 37 42 48 59 62 66 66 66 66 66 62 61 61 54 51 50 51 50 49 50 51 50 48 46 45 45 45 46 46 46 47
26 22 23 25 30 27 24 21 22 22 21 21 20 25 34 38 38 35 40 47 51 59 63 65 65 65 64 64 61 59 55 52 50 52 51 50 51 49 49 47 45 45 45 45 44 45 45 45 45
28 26 22 27 28 27 26 23 20 22 19 19 19 28 31 35 38 36 37 47 52 59 64 63 62 60 60 57 53 52 51 50 51 49 48 49 49 47 47 47 46 44 43 43 43 44 44 44 44
28 27 25 30 34 32 29 29 31 29 27 25 24 27 33 34 38 39 43 50 56 61 61 60 59 55 53 51 51 48 48 48 48 47 46 47 47 46 47 46 44 43 42 41 42 42 42 41 42
27 28 27 27 29 32 34 29 31 33 33 32 33 34 34 37 41 42 48 51 59 59 58 56 56 53 52 48 45 46 48 47 45 46 46 48 46 46 45 43 42 41 41 42 42 41 41 41 41
Lifted_Index
7 7 7 6 5 3 1 0 -0 0 1 1 1 0 -1 -2 -2 -2 -2 -2 -3 -3 -3 -4 -5 -6 -5 -5 -5 -5 -5 -6 -6 -5 -5 -5 -5 -4 -4 -4 -4 -3 -3 -2 -2 -2 -2 -2 -2
7 7 6 5 4 2 1 0 0 0 1 1 1 0 -1 -2 -2 -2 -2 -2 -2 -3 -3 -4 -5 -5 -5 -5 -5 -5 -5 -6 -5 -5 -5 -5 -5 -5 -4 -4 -4 -3 -3 -2 -2 -2 -2 -2 -1
7 6 5 5 3 1 -0 -0 0 1 1 1 0 -1 -2 -2 -2 -2 -2 -2 -2 -2 -3 -4 -4 -5 -5 -5 -5 -5 -5 -5 -5 -5 -5 -5 -5 -4 -4 -4 -3 -3 -3 -2 -2 -1 -1 -1 -0
6 5 5 4 2 1 0 0 1 1 1 1 -0 -2 -3 -3 -3 -3 -3 -3 -3 -3 -3 -3 -4 -5 -5 -5 -5 -5 -5 -5 -5 -5 -5 -4 -4 -4 -4 -3 -3 -3 -2 -2 -1 -1 0 1 1
6 5 4 2 1 0 1 2 2 1 1 1 -1 -3 -4 -4 -4 -3 -3 -4 -3 -3 -3 -3 -3 -4 -5 -5 -4 -4 -4 -4 -4 -4 -4 -4 -4 -3 -3 -3 -3 -2 -2 -2 -1 -0 0 1 1
6 5 3 1 0 1 2 2 2 1 1 0 -1 -3 -4 -5 -4 -4 -4 -4 -4 -4 -3 -3 -3 -4 -4 -4 -4 -3 -3 -3 -3 -4 -4 -3 -3 -3 -2 -2 -2 -2 -2 -2 -1 -0 0 0 1
6 5 3 1 -0 1 2 3 2 1 0 0 -1 -2 -4 -5 -5 -4 -4 -4 -5 -5 -4 -3 -3 -3 -4 -3 -3 -3 -2 -3 -3 -3 -3 -3 -2 -2 -2 -1 -1 -2 -2 -1 -1 -1 -0 0 0
6 5 3 1 -0 1 2 3 3 1 0 -0 -1 -2 -4 -5 -5 -4 -4 -5 -5 -5 -5 -4 -3 -3 -3 -3 -3 -2 -2 -2 -2 -2 -2 -2 -1 -1 -1 -0 -1 -1 -1 -1 -1 -0 -0 0 0
5 5 3 1 0 1 2 3 3 2 1 0 -1 -2 -4 -5 -5 -5 -5 -5 -5 -5 -5 -5 -4 -4 -4 -3 -2 -2 -2 -2 -2 -2 -1 -1 -1 -1 -0 0 0 -0 -0 -0 -0 0 0 0 0
5 4 3 2 2 2 3 3 3 3 2 1 -0 -2 -4 -4 -5 -5 -5 -5 -5 -5 -5 -5 -5 -5 -4 -4 -3 -2 -2 -2 -2 -2 -1 -1 -1 -1 -1 0 0 0 0 0 0 0 0 0 -0
4 3 3 3 3 3 3 4 3 3 3 1 0 -1 -3 -4 -5 -5 -5 -5 -5 -5 -5 -5 -5 -5 -5 -4 -3 -3 -3 -3 -3 -3 -3 -2 -2 -2 -1 -1 -0 0 0 0 0 -0 -0 -1 -1
4 3 3 3 4 4 4 4 4 3 3 2 0 -1 -2 -3 -4 -4 -4 -4 -4 -4 -4 -5 -5 -6 -6 -5 -5 -4 -4 -4 -4 -4 -4 -3 -3 -2 -2 -2 -1 -1 -1 -1 -1 -1 -1 -1 -1
3 3 3 3 4 4 4 4 4 4 3 2 1 0 -1 -2 -3 -3 -3 -4 -4 -4 -4 -4 -5 -5 -6 -6 -5 -5 -4 -4 -4 -4 -4 -3 -3 -3 -3 -2 -2 -2 -2 -2 -2 -1 -1 -2 -2
3 3 3 4 4 3 3 4 4 4 3 3 3 2 1 -0 -1 -2 -2 -3 -4 -4 -4 -4 -5 -5 -5 -5 -5 -5 -5 -4 -4 -4 -3 -3 -3 -3 -3 -3 -3 -2 -2 -2 -2 -2 -2 -2 -2
3 3 3 4 4 3 3 4 4 3 3 3 3 3 3 2 1 -1 -2 -2 -3 -4 -5 -5 -4 -4 -4 -5 -5 -4 -4 -4 -4 -4 -4 -3 -3 -3 -3 -3 -3 -3 -3 -2 -2 -1 -0 -0 0
4 3 3 3 3 3 3 4 4 3 3 3 3 3 3 3 2 1 -0 -2 -3 -4 -5 -5 -4 -4 -4 -4 -4 -4 -4 -4 -4 -4 -4 -4 -3 -3 -3 -3 -2 -2 -2 -1 0 2 3 3 3
4 3 3 3 3 2 2 3 3 3 2 3 3 3 3 3 2 2 1 -1 -2 -4 -5 -5 -4 -4 -4 -4 -4 -4 -4 -4 -4 -4 -4 -4 -4 -3 -3 -2 -1 -0 1 2 3 4 5 5 5
4 4 3 3 2 1 1 2 2 2 2 2 3 3 3 3 2 2 1 0 -2 -4 -5 -5 -5 -4 -4 -4 -4 -4 -4 -4 -4 -4 -4 -4 -3 -3 -2 -0 1 3 3 4 4 5 6 7 7
4 4 4 3 2 1 0 1 1 2 2 2 3 3 3 3 3 2 1 0 -2 -4 -5 -5 -5 -5 -5 -4 -4 -4 -4 -4 -4 -3 -3 -2 -2 -1 0 2 4 5 5 5 6 7 8 9 9
4 4 4 3 2 1 1 1 1 2 3 3 3 3 3 3 3 2 1 -0 -2 -4 -5 -6 -6 -5 -5 -4 -4 -4 -4 -3 -3 -2 -2 -1 -0 1 3 4 5 6 6 7 8 9 10 11 11
4 4 3 3 2 2 2 2 2 3 3 3 3 3 3 3 3 2 1 -0 -2 -4 -5 -6 -6 -5 -5 -4 -4 -4 -3 -3 -2 -1 -1 -0 1 3 5 6 7 7 8 9 10 11 11 12 12
4 4 3 3 2 2 2 3 3 3 3 3 4 4 4 3 3 2 2 -0 -2 -4 -5 -5 -5 -5 -5 -4 -4 -3 -3 -2 -1 -1 -0 1 3 5 6 7 8 9 9 10 11 11 12 12 12
4 4 3 3 2 2 3 3 3 3 3 3 4 4 4 4 3 2 2 0 -3 -4 -5 -5 -5 -5 -5 -4 -4 -3 -2 -1 -1 -0 0 2 4 6 7 8 9 9 10 11 11 11 12 12 12
4 3 3 2 2 2 3 3 3 4 4 3 3 3 3 3 3 2 2 0 -2 -4 -5 -6 -5 -5 -5 -4 -3 -3 -2 -2 -1 -1 0 2 5 7 8 9 9 10 11 11 11 11 11 12 12
3 3 2 1 1 2 3 3 3 4 4 3 3 2 3 3 3 2 1 0 -2 -4 -5 -6 -6 -5 -5 -4 -4 -3 -2 -2 -1 -0 0 3 6 8 9 9 10 11 11 11 11 11 11 11 11
2 2 1 1 1 1 2 2 3 4 4 3 2 2 2 3 3 2 1 0 -1 -4 -5 -5 -5 -5 -5 -4 -4 -3 -2 -1 -0 1 2 4 6 8 9 10 11 11 12 12 12 12 12 12 12
2 1 1 1 0 1 1 2 3 4 4 3 2 2 2 2 2 2 1 0 -2 -4 -5 -5 -4 -4 -4 -4 -4 -3 -1 -1 0 2 5 6 7 8 9 10 11 12 12 12 12 12 12 12 12
1 1 1 1 1 0 1 2 3 3 3 2 2 1 2 2 2 2 1 -0 -2 -3 -4 -4 -3 -3 -3 -3 -3 -3 -1 0 2 4 6 8 9 9 10 11 12 12 12 13 13 13 13 13 13
1 1 1 1 1 1 1 2 3 3 2 2 1 1 1 1 1 1 0 -1 -2 -3 -3 -3 -3 -2 -2 -2 -2 -2 -1 1 4 6 7 9 10 11 11 12 13 13 13 13 13 13 14 14 14
1 0 0 0 1 1 1 2 3 2 2 2 1 1 0 1 0 0 -0 -1 -2 -3 -3 -3 -2 -2 -2 -2 -2 -1 0 3 5 6 8 10 11 11 12 13 13 13 13 13 14 14 14 14 14